Location: Bratislava
(0.0000°N, 17.1167°E)
Time: 04:40:47
(UTC+01:00)

Cosmos 1939 Rocket - Pass Details

Date: 24 January 2021
Orbit: 531 x 585 km, 97.4° (Epoch: 06 March)

Event Time Altitude Azimuth Distance (km) Brightness Sun altitude
Rises 18:18:56 0° 171° (S) 2,803 6.6 -3.6°
Reaches altitude 10° 18:21:06 10° 172° (S) 1,903 5.7 -4.1°
Maximum altitude 18:25:14 80° 258° (WSW) 595 3.1 -5.1°
Drops below altitude 10° 18:29:21 10° 346° (NNW) 1,891 5.5 -6.0°
Sets 18:31:29 0° 347° (NNW) 2,783 6.3 -6.6°
